User: anonymous   Login
Location: Caltech
(34.1382°N, 118.1253°W)
Time: 02:39:55
(UTC-07:00)
Language:

Cosmos 44 Rocket - Orbit

View from above orbital plane
View from above orbital plane
View from above satellite
View from above satellite

Ground track
Ground track

The orbit data is extracted from the following two-line orbital elements,

1 00877U 64053B   16150.05947556 -.00000042  00000-0  16715-4 0  9995
2 00877  65.0781 334.6798 0083494 263.3124  95.8467 14.59241733745464
Epoch (UTC): 29 May 2016 01:25:38
Eccentricity: 0.0083494
inclination: 65.0781°
perigee height: 636 km
apogee height: 754 km
right ascension of ascending node: 334.6798°
argument of perigee: 263.3124°
revolutions per day: 14.59241733
mean anomaly at epoch: 95.8467°
orbit number at epoch: 74546

The dashed part of the orbit path shows where the satellite is in the earth's shadow,  

DLR